TimeCDT,TemperatureF,Dew PointF,Humidity,Sea Level PressureIn,VisibilityMPH,Wind Direction,Wind SpeedMPH,Gust SpeedMPH,PrecipitationIn,Events,Conditions,WindDirDegrees,DateUTC
12:06 AM,39.2,26.6,61,30.22,10.0,ENE,11.5,-,N/A,,Mostly Cloudy,60,2013-04-02 05:06:00
12:12 AM,39.2,26.6,61,30.22,10.0,ENE,13.8,-,N/A,Rain,Light Rain,60,2013-04-02 05:12:00
12:23 AM,41.0,26.6,57,30.22,10.0,ENE,11.5,-,N/A,,Mostly Cloudy,60,2013-04-02 05:23:00
12:35 AM,41.0,24.8,53,30.20,10.0,ENE,13.8,-,N/A,Rain,Light Rain,70,2013-04-02 05:35:00
12:58 AM,39.7,27.0,60,30.26,10.0,ENE,9.2,-,0.00,Rain,Light Rain,60,2013-04-02 05:58:00
1:43 AM,39.2,28.4,65,30.22,10.0,NE,11.5,-,N/A,,Mostly Cloudy,50,2013-04-02 06:43:00
1:55 AM,39.2,28.4,65,30.22,10.0,ENE,12.7,-,N/A,Rain,Light Rain,60,2013-04-02 06:55:00
1:58 AM,38.7,28.9,68,30.27,10.0,NE,11.5,-,0.00,Rain,Light Rain,50,2013-04-02 06:58:00
2:58 AM,36.3,31.1,81,30.30,10.0,NE,6.9,-,0.04,Rain,Light Rain,40,2013-04-02 07:58:00
3:37 AM,35.6,32.0,87,30.26,10.0,NE,10.4,-,N/A,,Overcast,40,2013-04-02 08:37:00
3:45 AM,35.6,32.0,87,30.26,10.0,NE,9.2,-,N/A,,Light Drizzle,50,2013-04-02 08:45:00
3:54 AM,35.6,32.0,87,30.25,10.0,ENE,8.1,-,N/A,,Overcast,60,2013-04-02 08:54:00
3:58 AM,35.6,31.1,84,30.29,10.0,ENE,9.2,-,0.01,,Overcast,60,2013-04-02 08:58:00
4:11 AM,35.6,32.0,87,30.25,10.0,ENE,9.2,-,N/A,Rain,Light Rain,60,2013-04-02 09:11:00
4:44 AM,35.6,32.0,87,30.24,10.0,ENE,11.5,-,N/A,,Overcast,60,2013-04-02 09:44:00
4:58 AM,34.7,30.6,85,30.28,10.0,ENE,9.2,-,0.00,,Overcast,60,2013-04-02 09:58:00
5:33 AM,33.8,32.0,93,30.24,10.0,ENE,12.7,-,N/A,Rain,Light Rain,60,2013-04-02 10:33:00
5:58 AM,34.0,31.5,90,30.29,10.0,East,9.2,-,0.00,Rain,Light Rain,80,2013-04-02 10:58:00
5:59 AM,33.8,32.0,93,30.28,10.0,East,8.1,-,N/A,Rain-Snow,Light Rain,80,2013-04-02 10:59:00
6:07 AM,33.8,32.0,93,30.29,10.0,East,10.4,-,N/A,Rain-Snow,Light Rain,80,2013-04-02 11:07:00
6:17 AM,32.0,32.0,100,30.29,10.0,East,10.4,-,N/A,Rain-Snow,Light Rain,80,2013-04-02 11:17:00
6:19 AM,32.0,32.0,100,30.26,10.0,ENE,9.2,-,N/A,Rain,Light Rain,60,2013-04-02 11:19:00
6:57 AM,32.0,32.0,100,30.24,10.0,ESE,8.1,-,N/A,,Overcast,110,2013-04-02 11:57:00
6:58 AM,32.0,32.0,100,30.28,10.0,ESE,8.1,-,0.01,,Overcast,110,2013-04-02 11:58:00
7:58 AM,33.8,32.7,96,30.29,10.0,ENE,12.7,-,0.00,,Overcast,70,2013-04-02 12:58:00
8:58 AM,34.2,31.3,89,30.29,10.0,ENE,10.4,-,N/A,,Overcast,60,2013-04-02 13:58:00
9:05 AM,33.8,32.0,93,30.25,10.0,ENE,10.4,-,N/A,Rain,Light Rain,70,2013-04-02 14:05:00
9:16 AM,33.8,32.0,93,30.25,10.0,ENE,11.5,-,N/A,Rain,Light Rain,70,2013-04-02 14:16:00
9:22 AM,33.8,32.0,93,30.25,9.0,ENE,10.4,-,N/A,Rain,Light Freezing Rain,60,2013-04-02 14:22:00
9:36 AM,32.0,32.0,100,30.26,10.0,ENE,10.4,-,N/A,Rain,Light Rain,70,2013-04-02 14:36:00
9:47 AM,32.0,32.0,100,30.25,9.0,ENE,10.4,-,N/A,Rain,Light Rain,60,2013-04-02 14:47:00
9:52 AM,32.0,32.0,100,30.25,8.0,NE,9.2,-,N/A,Rain,Light Rain,50,2013-04-02 14:52:00
9:58 AM,33.4,32.7,97,30.30,9.0,ENE,10.4,-,0.03,Rain,Light Rain,60,2013-04-02 14:58:00
10:18 AM,32.0,32.0,100,30.27,10.0,East,6.9,-,N/A,Snow,Light Snow,80,2013-04-02 15:18:00
10:23 AM,32.0,32.0,100,30.26,10.0,East,8.1,-,N/A,Snow,Light Snow Grains,80,2013-04-02 15:23:00
10:43 AM,33.8,32.0,93,30.28,7.0,ENE,5.8,-,N/A,Snow,Light Snow Grains,60,2013-04-02 15:43:00
10:48 AM,33.8,32.0,93,30.27,10.0,East,6.9,-,N/A,Rain-Snow,Light Rain,80,2013-04-02 15:48:00
10:58 AM,34.3,33.6,97,30.31,10.0,East,8.1,-,0.03,Rain,Light Rain,90,2013-04-02 15:58:00
11:01 AM,33.8,32.0,93,30.28,10.0,East,6.9,-,N/A,,Mostly Cloudy,90,2013-04-02 16:01:00
11:58 AM,36.1,31.8,84,30.31,10.0,East,5.8,-,0.00,,Overcast,90,2013-04-02 16:58:00
12:58 PM,37.2,30.2,76,30.32,10.0,ENE,9.2,-,N/A,,Scattered Clouds,70,2013-04-02 17:58:00
1:15 PM,37.4,30.2,75,30.27,10.0,ENE,11.5,-,N/A,,Clear,70,2013-04-02 18:15:00
1:25 PM,37.4,28.4,70,30.27,10.0,ENE,11.5,-,N/A,,Clear,70,2013-04-02 18:25:00
1:33 PM,37.4,28.4,70,30.27,10.0,East,9.2,-,N/A,Rain,Light Rain,80,2013-04-02 18:33:00
1:46 PM,37.4,28.4,70,30.26,10.0,ENE,9.2,-,N/A,,Clear,70,2013-04-02 18:46:00
1:58 PM,38.3,28.8,69,30.30,10.0,East,9.2,-,0.00,,Partly Cloudy,80,2013-04-02 18:58:00
2:16 PM,39.2,28.4,65,30.25,10.0,East,9.2,-,N/A,Rain,Light Rain,80,2013-04-02 19:16:00
2:29 PM,39.2,28.4,65,30.25,10.0,East,8.1,-,N/A,,Mostly Cloudy,90,2013-04-02 19:29:00
2:58 PM,40.3,27.9,61,30.27,10.0,East,4.6,-,0.00,,Mostly Cloudy,100,2013-04-02 19:58:00
3:58 PM,41.4,26.2,55,30.26,10.0,East,11.5,-,N/A,,Mostly Cloudy,80,2013-04-02 20:58:00
4:45 PM,41.0,28.4,61,30.21,10.0,ENE,11.5,-,N/A,Rain,Light Rain,70,2013-04-02 21:45:00
4:58 PM,40.5,28.9,64,30.25,10.0,ENE,12.7,-,0.00,Rain,Light Rain,70,2013-04-02 21:58:00
4:59 PM,41.0,28.4,61,30.21,10.0,ENE,12.7,-,N/A,,Mostly Cloudy,70,2013-04-02 21:59:00
5:02 PM,41.0,28.4,61,30.21,10.0,East,10.4,-,N/A,,Scattered Clouds,80,2013-04-02 22:02:00
5:29 PM,41.0,26.6,57,30.21,10.0,ENE,11.5,-,N/A,,Scattered Clouds,70,2013-04-02 22:29:00
5:38 PM,41.0,28.4,61,30.21,10.0,East,11.5,-,N/A,,Partly Cloudy,90,2013-04-02 22:38:00
5:58 PM,40.5,28.0,61,30.26,10.0,East,9.2,-,0.00,,Clear,90,2013-04-02 22:58:00
6:58 PM,40.5,28.2,62,30.25,10.0,East,8.1,-,N/A,,Overcast,80,2013-04-02 23:58:00
7:58 PM,40.1,27.5,61,30.25,10.0,East,8.1,-,N/A,,Overcast,90,2013-04-03 00:58:00
8:58 PM,39.6,28.2,64,30.25,10.0,East,5.8,-,N/A,,Overcast,90,2013-04-03 01:58:00
9:58 PM,39.2,28.9,67,30.26,10.0,ENE,5.8,-,N/A,,Overcast,70,2013-04-03 02:58:00
10:58 PM,38.7,29.1,69,30.28,10.0,NE,4.6,-,N/A,,Mostly Cloudy,50,2013-04-03 03:58:00
11:58 PM,38.8,30.2,71,30.28,10.0,NNE,5.8,-,N/A,,Overcast,30,2013-04-03 04:58:00